SXG421 LROP-LTAI

Flight info

Callsign SXG421
Flight time 1h 42m
Altitude 29000
Route IDARU DCT NONQE/N0458F350 DCT MAXOV DCT MATEL L620 RIXEN UL620 IST UN616 OVACI UT69 BABSA
Aircraft B738/M-SDE2E3FGHIRWXY/LB1

Departure

Time 2026-05-04 18:15
Airport Bucharest Henri Coandă International Airport (LROP)

Arrival

Time 2026-05-04 19:58
Airport Antalya International Airport (LTAI)
Time Latitude Longitude Altitude Speed Heading
2026-05-04 17:16 44.57140 26.08058 319 ft 0 kts 174°
2026-05-04 18:07 44.57153 26.08056 319 ft 4 kts 174°
2026-05-04 18:07 44.57176 26.08052 318 ft 4 kts 153°
2026-05-04 18:07 44.57190 26.08029 317 ft 4 kts 92°
2026-05-04 18:07 44.57190 26.08003 318 ft 1 kts 84°
2026-05-04 18:08 44.57189 26.07999 318 ft 0 kts 84°
2026-05-04 18:10 44.57189 26.08001 319 ft 1 kts 84°
2026-05-04 18:10 44.57194 26.08061 318 ft 9 kts 84°
2026-05-04 18:10 44.57200 26.08151 319 ft 9 kts 84°
2026-05-04 18:11 44.57208 26.08240 319 ft 9 kts 81°
2026-05-04 18:11 44.57221 26.08325 319 ft 9 kts 77°
2026-05-04 18:11 44.57230 26.08408 319 ft 9 kts 84°
2026-05-04 18:11 44.57245 26.08485 318 ft 8 kts 48°
2026-05-04 18:12 44.57299 26.08495 319 ft 8 kts 354°
2026-05-04 18:12 44.57354 26.08487 320 ft 8 kts 354°
2026-05-04 18:12 44.57407 26.08479 319 ft 8 kts 354°
2026-05-04 18:12 44.57458 26.08472 320 ft 7 kts 354°
2026-05-04 18:13 44.57507 26.08464 320 ft 7 kts 353°
2026-05-04 18:13 44.57556 26.08459 320 ft 7 kts 356°
2026-05-04 18:13 44.57649 26.08447 320 ft 7 kts
2026-05-04 18:14 44.57668 26.08485 323 ft 5 kts 84°
2026-05-04 18:14 44.57669 26.08500 323 ft 0 kts 84°
2026-05-04 18:15 44.57702 26.08933 319 ft 84 kts 84°
2026-05-04 18:15 44.57896 26.11710 733 ft 175 kts 86°
2026-05-04 18:15 44.58014 26.13474 1478 ft 188 kts 84°
2026-05-04 18:16 44.58151 26.15406 1936 ft 214 kts 83°
2026-05-04 18:16 44.58310 26.17598 2231 ft 235 kts 83°
2026-05-04 18:16 44.58479 26.19911 2867 ft 240 kts 82°
2026-05-04 18:17 44.58825 26.24811 4126 ft 262 kts 87°
2026-05-04 18:17 44.58364 26.27282 5074 ft 268 kts 117°
2026-05-04 18:17 44.56209 26.31714 6692 ft 281 kts 120°
2026-05-04 18:18 44.55098 26.33935 7533 ft 282 kts 119°
2026-05-04 18:18 44.53977 26.36192 8424 ft 283 kts 118°
2026-05-04 18:18 44.52854 26.38474 9278 ft 285 kts 118°
2026-05-04 18:18 44.51726 26.40782 10114 ft 288 kts 118°
2026-05-04 18:19 44.49351 26.45701 10792 ft 329 kts 118°
2026-05-04 18:19 44.48029 26.48453 10970 ft 352 kts 119°
2026-05-04 18:19 44.46617 26.51386 11230 ft 370 kts 119°
2026-05-04 18:20 44.45158 26.54404 11808 ft 377 kts 119°
2026-05-04 18:20 44.43702 26.57405 12539 ft 379 kts 119°
2026-05-04 18:20 44.42214 26.60472 13322 ft 381 kts 119°
2026-05-04 18:20 44.40720 26.63553 14017 ft 385 kts 119°
2026-05-04 18:21 44.39218 26.66652 14625 ft 388 kts 119°
2026-05-04 18:21 44.37696 26.69792 15239 ft 392 kts 120°
2026-05-04 18:21 44.36157 26.72965 15854 ft 395 kts 120°
2026-05-04 18:21 44.34607 26.76159 16459 ft 399 kts 120°
2026-05-04 18:22 44.33043 26.79379 17042 ft 403 kts 120°
2026-05-04 18:22 44.31459 26.82633 17635 ft 406 kts 120°
2026-05-04 18:22 44.29888 26.85860 18229 ft 409 kts 120°
2026-05-04 18:22 44.28279 26.89160 18729 ft 413 kts 120°
2026-05-04 18:23 44.26653 26.92492 19174 ft 418 kts 121°
2026-05-04 18:23 44.25003 26.95869 19630 ft 422 kts 121°
2026-05-04 18:23 44.23341 26.99267 20078 ft 426 kts 121°
2026-05-04 18:23 44.21669 27.02679 20529 ft 430 kts 121°
2026-05-04 18:24 44.19972 27.06141 20969 ft 434 kts 121°
2026-05-04 18:24 44.18262 27.09623 21398 ft 437 kts 121°
2026-05-04 18:24 44.16560 27.13085 21809 ft 441 kts 122°
2026-05-04 18:24 44.14821 27.16618 22221 ft 445 kts 122°
2026-05-04 18:25 44.13064 27.20184 22620 ft 448 kts 122°
2026-05-04 18:25 44.11292 27.23776 23012 ft 452 kts 122°
2026-05-04 18:25 44.09499 27.27406 23411 ft 456 kts 122°
2026-05-04 18:25 44.07703 27.31038 23747 ft 460 kts 122°
2026-05-04 18:26 44.05881 27.34718 24058 ft 463 kts 122°
2026-05-04 18:26 44.04052 27.38407 24440 ft 464 kts 122°
2026-05-04 18:26 44.02218 27.42102 24825 ft 465 kts 122°
2026-05-04 18:26 44.00398 27.45766 25179 ft 467 kts 122°
2026-05-04 18:27 43.98522 27.49536 25501 ft 470 kts 123°
2026-05-04 18:27 43.96578 27.53136 25808 ft 474 kts 130°
2026-05-04 18:27 43.94217 27.56342 26148 ft 478 kts 138°
2026-05-04 18:27 43.91503 27.59015 26515 ft 480 kts 147°
2026-05-04 18:28 43.88621 27.61348 26849 ft 482 kts 148°
2026-05-04 18:28 43.85707 27.63665 27137 ft 484 kts 148°
2026-05-04 18:28 43.82745 27.65931 27429 ft 487 kts 151°
2026-05-04 18:28 43.79708 27.68005 27757 ft 488 kts 153°
2026-05-04 18:29 43.76632 27.69980 28150 ft 487 kts 154°
2026-05-04 18:29 43.73593 27.71891 28621 ft 485 kts 154°
2026-05-04 18:29 43.70533 27.73816 29118 ft 483 kts 153°
2026-05-04 18:29 43.67483 27.75754 29512 ft 482 kts 153°
2026-05-04 18:30 43.61402 27.79670 30262 ft 481 kts 153°
2026-05-04 18:30 43.58375 27.81634 30667 ft 479 kts 153°
2026-05-04 18:30 43.55376 27.83583 31061 ft 477 kts 153°
2026-05-04 18:31 43.52375 27.85532 31410 ft 475 kts 153°
2026-05-04 18:31 43.49379 27.87475 31747 ft 475 kts 153°
2026-05-04 18:31 43.46397 27.89407 32107 ft 473 kts 152°
2026-05-04 18:31 43.43426 27.91329 32426 ft 473 kts 152°
2026-05-04 18:32 43.40489 27.93226 32754 ft 472 kts 152°
2026-05-04 18:32 43.37526 27.95137 33119 ft 470 kts 152°
2026-05-04 18:32 43.34572 27.97040 33472 ft 468 kts 152°
2026-05-04 18:32 43.31624 27.98937 33804 ft 467 kts 152°
2026-05-04 18:33 43.28685 28.00826 34112 ft 467 kts 152°
2026-05-04 18:33 43.25748 28.02713 34338 ft 467 kts 152°
2026-05-04 18:33 43.22797 28.04606 34531 ft 468 kts 152°
2026-05-04 18:33 43.19839 28.06503 34701 ft 470 kts 152°
2026-05-04 18:34 43.16883 28.08395 34921 ft 470 kts 152°
2026-05-04 18:34 43.13911 28.10296 35065 ft 471 kts 152°
2026-05-04 18:34 43.10931 28.12199 35057 ft 474 kts 152°
2026-05-04 18:35 43.05007 28.15976 35055 ft 471 kts 152°
2026-05-04 18:35 42.99091 28.19739 35077 ft 467 kts 152°
2026-05-04 18:36 42.93182 28.23494 35158 ft 471 kts 152°
2026-05-04 18:36 42.90207 28.25380 35396 ft 471 kts 152°
2026-05-04 18:36 42.87241 28.27258 35673 ft 469 kts 152°
2026-05-04 18:36 42.84276 28.29134 35884 ft 469 kts 152°
2026-05-04 18:37 42.81310 28.31008 36032 ft 471 kts 152°
2026-05-04 18:37 42.78375 28.32861 36212 ft 471 kts 153°
2026-05-04 18:37 42.75400 28.34737 36449 ft 471 kts 152°
2026-05-04 18:37 42.72424 28.36612 36606 ft 472 kts 153°
2026-05-04 18:38 42.69438 28.38491 36753 ft 473 kts 153°
2026-05-04 18:38 42.66450 28.40370 36948 ft 473 kts 153°
2026-05-04 18:38 42.63467 28.42243 37055 ft 474 kts 153°
2026-05-04 18:39 42.57457 28.46011 37049 ft 475 kts 153°
2026-05-04 18:39 42.51519 28.49725 37060 ft 472 kts 153°
2026-05-04 18:40 42.45565 28.53442 37049 ft 470 kts 153°
2026-05-04 18:40 42.39626 28.57143 37043 ft 469 kts 153°
2026-05-04 18:41 42.33703 28.60826 37051 ft 468 kts 153°
2026-05-04 18:41 42.27777 28.64503 37049 ft 469 kts 153°
2026-05-04 18:42 42.21835 28.68183 37039 ft 471 kts 153°
2026-05-04 18:42 42.15911 28.71846 37051 ft 473 kts 153°
2026-05-04 18:43 42.09870 28.75412 37039 ft 476 kts 160°
2026-05-04 18:43 42.03328 28.76983 37045 ft 482 kts 178°
2026-05-04 18:44 41.96615 28.77096 37047 ft 484 kts 178°
2026-05-04 18:44 41.89872 28.77280 37051 ft 485 kts 177°
2026-05-04 18:45 41.83160 28.77554 37047 ft 486 kts 177°
2026-05-04 18:45 41.76407 28.77829 37042 ft 486 kts 178°
2026-05-04 18:46 41.69654 28.78101 37055 ft 485 kts 177°
2026-05-04 18:46 41.62953 28.78377 37054 ft 485 kts 177°
2026-05-04 18:47 41.56207 28.78655 37040 ft 484 kts 177°
2026-05-04 18:47 41.49478 28.78931 37052 ft 484 kts 177°
2026-05-04 18:48 41.42756 28.79190 37048 ft 483 kts 178°
2026-05-04 18:48 41.36037 28.79426 37060 ft 483 kts 178°
2026-05-04 18:49 41.29356 28.79664 37046 ft 483 kts 178°
2026-05-04 18:49 41.22649 28.79905 37058 ft 483 kts 177°
2026-05-04 18:50 41.15923 28.80195 37055 ft 484 kts 177°
2026-05-04 18:50 41.09194 28.80510 37049 ft 485 kts 177°
2026-05-04 18:51 41.02426 28.80817 37049 ft 487 kts 177°
2026-05-04 18:51 40.95654 28.81218 37042 ft 487 kts 171°
2026-05-04 18:52 40.89092 28.83012 37050 ft 486 kts 165°
2026-05-04 18:52 40.82506 28.85074 37055 ft 487 kts 165°
2026-05-04 18:53 40.75893 28.87094 37048 ft 488 kts 166°
2026-05-04 18:53 40.69277 28.89063 37046 ft 488 kts 166°
2026-05-04 18:54 40.62642 28.91017 37045 ft 488 kts 166°
2026-05-04 18:54 40.56063 28.92952 37056 ft 488 kts 166°
2026-05-04 18:55 40.49455 28.94893 37040 ft 487 kts 166°
2026-05-04 18:55 40.39544 28.97801 37057 ft 486 kts 166°
2026-05-04 18:56 40.32989 28.99718 37057 ft 485 kts 166°
2026-05-04 18:56 40.26390 29.01644 37054 ft 485 kts 166°
2026-05-04 18:57 40.19812 29.03561 37060 ft 485 kts 166°
2026-05-04 18:57 40.13220 29.05478 37057 ft 486 kts 167°
2026-05-04 18:58 40.06619 29.07394 37063 ft 486 kts 167°
2026-05-04 18:58 40.00061 29.09294 37060 ft 487 kts 167°
2026-05-04 18:59 39.93435 29.11210 37053 ft 489 kts 166°
2026-05-04 18:59 39.86780 29.13130 37068 ft 490 kts 166°
2026-05-04 19:00 39.80097 29.15056 37067 ft 492 kts 166°
2026-05-04 19:00 39.73637 29.17750 37072 ft 492 kts 158°
2026-05-04 19:01 39.67257 29.21005 37054 ft 493 kts 157°
2026-05-04 19:01 39.60871 29.24246 37063 ft 493 kts 158°
2026-05-04 19:02 39.54458 29.27418 37056 ft 492 kts 158°
2026-05-04 19:02 39.48104 29.30523 37055 ft 491 kts 159°
2026-05-04 19:03 39.41711 29.33638 37061 ft 490 kts 159°
2026-05-04 19:03 39.35342 29.36740 37052 ft 489 kts 159°
2026-05-04 19:04 39.28969 29.39839 37055 ft 488 kts 159°
2026-05-04 19:04 39.22618 29.42923 37053 ft 488 kts 159°
2026-05-04 19:05 39.16313 29.45977 37054 ft 487 kts 159°
2026-05-04 19:05 39.09964 29.49047 37052 ft 487 kts 159°
2026-05-04 19:06 39.03610 29.52114 37052 ft 487 kts 159°
2026-05-04 19:06 38.97263 29.55171 37058 ft 487 kts 160°
2026-05-04 19:07 38.90953 29.58205 37050 ft 487 kts 160°
2026-05-04 19:07 38.84602 29.61253 37038 ft 487 kts 160°
2026-05-04 19:08 38.78268 29.64288 37047 ft 486 kts 160°
2026-05-04 19:08 38.72207 29.68068 37032 ft 484 kts 145°
2026-05-04 19:09 38.66763 29.73006 37031 ft 483 kts 143°
2026-05-04 19:09 38.61274 29.77988 36713 ft 488 kts 144°
2026-05-04 19:10 38.58479 29.80482 36178 ft 488 kts 144°
2026-05-04 19:10 38.55692 29.82948 35600 ft 487 kts 144°
2026-05-04 19:10 38.52912 29.85401 34968 ft 488 kts 144°
2026-05-04 19:10 38.50101 29.87880 34334 ft 489 kts 144°
2026-05-04 19:11 38.47303 29.90348 33603 ft 490 kts 143°
2026-05-04 19:11 38.44493 29.92826 32849 ft 491 kts 143°
2026-05-04 19:11 38.41725 29.95269 32130 ft 491 kts 142°
2026-05-04 19:11 38.38914 29.97751 31397 ft 493 kts 141°
2026-05-04 19:12 38.36100 30.00235 30674 ft 494 kts 140°
2026-05-04 19:12 38.30432 30.05237 28950 ft 498 kts 141°
2026-05-04 19:12 38.27580 30.07748 28064 ft 499 kts 141°
2026-05-04 19:13 38.24719 30.10263 27158 ft 500 kts 142°
2026-05-04 19:13 38.21857 30.12777 26431 ft 498 kts 143°
2026-05-04 19:13 38.19050 30.15235 26312 ft 482 kts 143°
2026-05-04 19:13 38.16359 30.17590 26080 ft 470 kts 143°
2026-05-04 19:14 38.13701 30.19917 25887 ft 459 kts 143°
2026-05-04 19:14 38.11098 30.22195 25692 ft 448 kts 143°
2026-05-04 19:14 38.08572 30.24406 25508 ft 437 kts 143°
2026-05-04 19:14 38.06092 30.26575 25328 ft 428 kts 143°
2026-05-04 19:15 38.03671 30.28689 25149 ft 419 kts 143°
2026-05-04 19:15 38.01325 30.30741 24977 ft 410 kts 142°
2026-05-04 19:15 37.99075 30.32878 24814 ft 401 kts 139°
2026-05-04 19:15 37.96913 30.35056 24649 ft 393 kts 139°
2026-05-04 19:16 37.94801 30.37201 24492 ft 387 kts 139°
2026-05-04 19:16 37.92697 30.39314 24351 ft 388 kts 140°
2026-05-04 19:16 37.90546 30.41450 24221 ft 396 kts 140°
2026-05-04 19:16 37.88324 30.43556 24023 ft 403 kts 148°
2026-05-04 19:17 37.85723 30.44818 23847 ft 400 kts 172°
2026-05-04 19:17 37.82981 30.44874 23697 ft 392 kts 192°
2026-05-04 19:17 37.80395 30.43929 23535 ft 382 kts 211°
2026-05-04 19:17 37.78192 30.42239 23362 ft 374 kts 220°
2026-05-04 19:18 37.76065 30.40359 23180 ft 371 kts 220°
2026-05-04 19:18 37.73958 30.38503 23004 ft 369 kts 219°
2026-05-04 19:18 37.71840 30.36668 22862 ft 367 kts 219°
2026-05-04 19:18 37.69731 30.34865 22709 ft 366 kts 219°
2026-05-04 19:19 37.67622 30.33071 22557 ft 365 kts 219°
2026-05-04 19:19 37.65515 30.31281 22411 ft 365 kts 219°
2026-05-04 19:19 37.63409 30.29493 22249 ft 365 kts 219°
2026-05-04 19:19 37.61243 30.27796 22098 ft 370 kts 207°
2026-05-04 19:20 37.58767 30.27014 21978 ft 376 kts 189°
2026-05-04 19:20 37.56159 30.26666 21827 ft 378 kts 188°
2026-05-04 19:20 37.53533 30.26359 21656 ft 380 kts 187°
2026-05-04 19:20 37.50894 30.26036 21498 ft 381 kts 188°
2026-05-04 19:21 37.48257 30.25689 21344 ft 382 kts 188°
2026-05-04 19:21 37.45611 30.25327 21173 ft 382 kts 188°
2026-05-04 19:21 37.42973 30.24962 21018 ft 381 kts 188°
2026-05-04 19:21 37.40342 30.24598 20859 ft 380 kts 188°
2026-05-04 19:22 37.37764 30.24243 20697 ft 378 kts 188°
2026-05-04 19:22 37.35147 30.23884 20540 ft 376 kts 188°
2026-05-04 19:22 37.32554 30.23527 20381 ft 374 kts 188°
2026-05-04 19:22 37.29964 30.23172 20239 ft 373 kts 188°
2026-05-04 19:23 37.27394 30.22819 20081 ft 372 kts 188°
2026-05-04 19:23 37.24828 30.22467 19915 ft 371 kts 188°
2026-05-04 19:23 37.22270 30.22116 19763 ft 368 kts 188°
2026-05-04 19:23 37.19729 30.21768 19610 ft 367 kts 188°
2026-05-04 19:24 37.17184 30.21510 19449 ft 368 kts 179°
2026-05-04 19:24 37.14739 30.22215 19291 ft 366 kts 153°
2026-05-04 19:24 37.12683 30.23983 19151 ft 354 kts 130°
2026-05-04 19:24 37.11283 30.26421 19001 ft 339 kts 111°
2026-05-04 19:25 37.10544 30.29138 18839 ft 322 kts 94°
2026-05-04 19:25 37.10338 30.31863 18697 ft 306 kts 78°
2026-05-04 19:25 37.10954 30.34277 18586 ft 281 kts 51°
2026-05-04 19:25 37.12186 30.36062 18486 ft 265 kts 33°
2026-05-04 19:26 37.13683 30.37315 18382 ft 256 kts 21°
2026-05-04 19:26 37.15362 30.37960 18278 ft 252 kts
2026-05-04 19:26 37.17096 30.38213 18183 ft 257 kts
2026-05-04 19:26 37.18888 30.38445 18059 ft 260 kts
2026-05-04 19:27 37.20681 30.38673 17953 ft 258 kts
2026-05-04 19:27 37.22456 30.38905 17837 ft 256 kts
2026-05-04 19:27 37.24219 30.39139 17716 ft 254 kts
2026-05-04 19:27 37.25969 30.39373 17608 ft 252 kts
2026-05-04 19:28 37.27708 30.39606 17501 ft 250 kts
2026-05-04 19:28 37.29412 30.39834 17398 ft 249 kts
2026-05-04 19:28 37.31137 30.40062 17301 ft 249 kts
2026-05-04 19:28 37.32862 30.40294 17187 ft 250 kts
2026-05-04 19:29 37.34592 30.40528 17092 ft 251 kts
2026-05-04 19:29 37.36337 30.40763 16987 ft 253 kts
2026-05-04 19:29 37.38091 30.40999 16880 ft 255 kts
2026-05-04 19:29 37.39859 30.41237 16771 ft 256 kts
2026-05-04 19:30 37.41632 30.41476 16680 ft 256 kts
2026-05-04 19:30 37.43386 30.41712 16559 ft 257 kts
2026-05-04 19:30 37.45153 30.41950 16442 ft 255 kts
2026-05-04 19:30 37.46911 30.42188 16360 ft 254 kts
2026-05-04 19:31 37.48669 30.42424 16248 ft 254 kts
2026-05-04 19:31 37.50423 30.42661 16140 ft 253 kts
2026-05-04 19:31 37.52175 30.42897 16024 ft 254 kts
2026-05-04 19:31 37.53932 30.43134 15920 ft 253 kts
2026-05-04 19:32 37.55678 30.43372 15823 ft 253 kts
2026-05-04 19:32 37.57323 30.44092 15703 ft 259 kts 31°
2026-05-04 19:32 37.58584 30.45718 15605 ft 266 kts 53°
2026-05-04 19:32 37.59268 30.47919 15494 ft 276 kts 76°
2026-05-04 19:33 37.59263 30.50368 15430 ft 282 kts 89°
2026-05-04 19:33 37.58880 30.52821 15227 ft 294 kts 110°
2026-05-04 19:33 37.57611 30.54872 15127 ft 303 kts 141°
2026-05-04 19:33 37.55689 30.55939 14988 ft 305 kts 174°
2026-05-04 19:34 37.53592 30.55862 14894 ft 301 kts 189°
2026-05-04 19:34 37.51554 30.55542 14765 ft 301 kts 189°
2026-05-04 19:34 37.49471 30.55221 14641 ft 301 kts 189°
2026-05-04 19:34 37.47394 30.54908 14493 ft 300 kts 188°
2026-05-04 19:35 37.45322 30.54611 14371 ft 299 kts 188°
2026-05-04 19:35 37.43264 30.54322 14245 ft 297 kts 188°
2026-05-04 19:35 37.41224 30.54038 14102 ft 293 kts 188°
2026-05-04 19:35 37.39210 30.53759 13992 ft 291 kts 188°
2026-05-04 19:36 37.37204 30.53480 13871 ft 289 kts 188°
2026-05-04 19:36 37.35248 30.53208 13754 ft 287 kts 189°
2026-05-04 19:36 37.33264 30.52932 13627 ft 285 kts 188°
2026-05-04 19:36 37.31303 30.52660 13487 ft 283 kts 189°
2026-05-04 19:37 37.29353 30.52390 13377 ft 281 kts 188°
2026-05-04 19:37 37.27415 30.52121 13237 ft 280 kts 189°
2026-05-04 19:37 37.25485 30.51853 13108 ft 279 kts 189°
2026-05-04 19:37 37.23545 30.51584 13027 ft 281 kts 188°
2026-05-04 19:38 37.21590 30.51568 12876 ft 285 kts 167°
2026-05-04 19:38 37.19868 30.52659 12810 ft 281 kts 136°
2026-05-04 19:38 37.18745 30.54609 12691 ft 277 kts 109°
2026-05-04 19:38 37.18307 30.56936 12605 ft 274 kts 93°
2026-05-04 19:39 37.18130 30.59323 12487 ft 275 kts 91°
2026-05-04 19:39 37.17973 30.61712 12354 ft 275 kts 91°
2026-05-04 19:39 37.17810 30.64084 12210 ft 273 kts 91°
2026-05-04 19:39 37.17637 30.66452 12116 ft 272 kts 91°
2026-05-04 19:40 37.17458 30.68811 12007 ft 272 kts 92°
2026-05-04 19:40 37.17267 30.71165 11857 ft 270 kts 93°
2026-05-04 19:40 37.17084 30.73494 11779 ft 268 kts 93°
2026-05-04 19:40 37.16546 30.75734 11650 ft 271 kts 112°
2026-05-04 19:41 37.15730 30.77871 11554 ft 272 kts 114°
2026-05-04 19:41 37.14907 30.80007 11431 ft 273 kts 112°
2026-05-04 19:41 37.14099 30.82121 11322 ft 274 kts 112°
2026-05-04 19:41 37.13278 30.84294 11190 ft 276 kts 112°
2026-05-04 19:42 37.12462 30.86470 11077 ft 276 kts 112°
2026-05-04 19:42 37.11653 30.88641 10964 ft 276 kts 112°
2026-05-04 19:42 37.10849 30.90806 10840 ft 274 kts 112°
2026-05-04 19:42 37.10053 30.92953 10724 ft 270 kts 112°
2026-05-04 19:43 37.09261 30.95090 10604 ft 269 kts 112°
2026-05-04 19:43 37.08475 30.97210 10496 ft 268 kts 112°
2026-05-04 19:43 37.07688 30.99327 10382 ft 267 kts 113°
2026-05-04 19:43 37.06643 31.01205 10238 ft 270 kts 141°
2026-05-04 19:44 37.04976 31.02183 10149 ft 265 kts 173°
2026-05-04 19:44 37.03171 31.02061 10059 ft 259 kts 199°
2026-05-04 19:44 37.01538 31.01161 9970 ft 257 kts 211°
2026-05-04 19:44 36.99952 31.00079 9851 ft 262 kts 211°
2026-05-04 19:45 36.98359 30.98980 9732 ft 262 kts 211°
2026-05-04 19:45 36.96754 30.97885 9596 ft 263 kts 211°
2026-05-04 19:45 36.95146 30.96797 9479 ft 263 kts 211°
2026-05-04 19:45 36.93534 30.95716 9381 ft 264 kts 211°
2026-05-04 19:46 36.91922 30.94638 9271 ft 264 kts 211°
2026-05-04 19:46 36.90296 30.93622 9145 ft 266 kts 200°
2026-05-04 19:46 36.88447 30.93281 8931 ft 270 kts 184°
2026-05-04 19:46 36.86564 30.93149 8654 ft 270 kts 185°
2026-05-04 19:47 36.84696 30.92988 8386 ft 268 kts 185°
2026-05-04 19:47 36.82839 30.92817 8153 ft 267 kts 186°
2026-05-04 19:47 36.80992 30.92640 7895 ft 266 kts 186°
2026-05-04 19:47 36.79153 30.92461 7653 ft 265 kts 186°
2026-05-04 19:48 36.77318 30.92282 7404 ft 264 kts 186°
2026-05-04 19:48 36.75488 30.92102 7169 ft 264 kts 187°
2026-05-04 19:48 36.73681 30.91922 6923 ft 265 kts 186°
2026-05-04 19:48 36.71846 30.91742 6692 ft 264 kts 186°
2026-05-04 19:49 36.70018 30.91562 6471 ft 261 kts 186°
2026-05-04 19:49 36.68222 30.91387 6208 ft 256 kts 186°
2026-05-04 19:49 36.66477 30.91219 5957 ft 249 kts 186°
2026-05-04 19:49 36.64823 30.90808 5664 ft 238 kts 212°
2026-05-04 19:50 36.63652 30.89527 5487 ft 216 kts 240°
2026-05-04 19:50 36.62945 30.87960 5274 ft 201 kts 253°
2026-05-04 19:50 36.62399 30.86401 5111 ft 199 kts 253°
2026-05-04 19:50 36.61934 30.84800 4919 ft 193 kts 271°
2026-05-04 19:51 36.62173 30.83259 4769 ft 177 kts 305°
2026-05-04 19:51 36.62987 30.82181 4604 ft 171 kts 330°
2026-05-04 19:51 36.64009 30.81449 4444 ft 170 kts 331°
2026-05-04 19:51 36.65037 30.80704 4296 ft 171 kts 331°
2026-05-04 19:52 36.66068 30.79962 4143 ft 172 kts 332°
2026-05-04 19:52 36.67111 30.79215 3971 ft 173 kts 331°
2026-05-04 19:52 36.68156 30.78468 3820 ft 173 kts 332°
2026-05-04 19:52 36.69173 30.77742 3653 ft 170 kts 332°
2026-05-04 19:53 36.70190 30.77027 3491 ft 166 kts 335°
2026-05-04 19:53 36.71305 30.76831 3331 ft 165 kts
2026-05-04 19:53 36.72454 30.76946 3152 ft 166 kts 356°
2026-05-04 19:53 36.73618 30.77004 3060 ft 170 kts
2026-05-04 19:54 36.74803 30.77166 2918 ft 173 kts
2026-05-04 19:54 36.75986 30.77333 2703 ft 169 kts
2026-05-04 19:54 36.77130 30.77493 2476 ft 163 kts
2026-05-04 19:54 36.78248 30.77647 2265 ft 160 kts
2026-05-04 19:55 36.79305 30.77794 2047 ft 149 kts
2026-05-04 19:55 36.80306 30.77932 1848 ft 144 kts
2026-05-04 19:55 36.81285 30.78066 1678 ft 138 kts
2026-05-04 19:55 36.82209 30.78193 1481 ft 130 kts
2026-05-04 19:56 36.83095 30.78316 1306 ft 126 kts
2026-05-04 19:56 36.83971 30.78435 1142 ft 129 kts
2026-05-04 19:56 36.84899 30.78568 959 ft 136 kts
2026-05-04 19:56 36.85825 30.78712 758 ft 134 kts
2026-05-04 19:57 36.86752 30.78823 598 ft 133 kts 358°
2026-05-04 19:57 36.87669 30.78948 398 ft 136 kts 358°
2026-05-04 19:57 36.88613 30.79071 223 ft 137 kts
2026-05-04 19:57 36.89490 30.79215 195 ft 115 kts 359°
2026-05-04 19:58 36.90134 30.79286 191 ft 71 kts
2026-05-04 19:58 36.90478 30.79329 202 ft 28 kts
2026-05-04 19:58 36.90548 30.79340 203 ft 0 kts 11°
2026-05-04 19:58 36.90583 30.79347 192 ft 12 kts
2026-05-04 19:59 36.90678 30.79407 194 ft 16 kts 37°
2026-05-04 19:59 36.90764 30.79492 199 ft 15 kts 39°
2026-05-04 19:59 36.90766 30.79574 199 ft 9 kts 144°
2026-05-04 19:59 36.90705 30.79582 191 ft 9 kts 186°
2026-05-04 20:00 36.90645 30.79574 195 ft 9 kts 186°
2026-05-04 20:00 36.90586 30.79567 192 ft 8 kts 186°
2026-05-04 20:00 36.90511 30.79556 194 ft 15 kts 186°
2026-05-04 20:00 36.90393 30.79539 195 ft 18 kts 186°
2026-05-04 20:01 36.90271 30.79523 202 ft 17 kts 186°
2026-05-04 20:01 36.90154 30.79507 190 ft 17 kts 186°
2026-05-04 20:01 36.90042 30.79492 190 ft 16 kts 186°
2026-05-04 20:01 36.89933 30.79477 200 ft 15 kts 186°
2026-05-04 20:02 36.89830 30.79462 190 ft 15 kts 186°
2026-05-04 20:02 36.89730 30.79449 199 ft 14 kts 185°
2026-05-04 20:02 36.89661 30.79498 198 ft 14 kts 91°
2026-05-04 20:02 36.89653 30.79613 191 ft 13 kts 96°
2026-05-04 20:03 36.89643 30.79723 191 ft 13 kts 96°
2026-05-04 20:03 36.89636 30.79808 191 ft 7 kts 86°
2026-05-04 20:03 36.89659 30.79862 193 ft 7 kts 56°
2026-05-04 20:03 36.89685 30.79914 198 ft 7 kts 60°
2026-05-04 20:04 36.89706 30.79963 198 ft 3 kts 61°
2026-05-04 20:04 36.89712 30.79976 202 ft 2 kts 60°
2026-05-04 20:04 36.89718 30.79988 198 ft 2 kts 60°
2026-05-04 20:04 36.89728 30.80013 197 ft 4 kts 61°
2026-05-04 20:05 36.89737 30.80032 191 ft 0 kts 61°